Flag for Russia Weather past 2 weeks in Chelyabinsk, Russia

32 °F


Feels Like: 22 °F
Forecast: 26 / 38 °F
Wind: 15 mph from South

Location: Chelyabinsk-Balandino

Current Time: Oct 10, 2015 at 9:39:26 AM

Latest Report: Oct 10, 2015 at 9:00 AM

Visibility: 10 mi

Pressure: 29.89 "Hg

Humidity: 55%

Dew point: 18 °F

Location of ChelyabinskLocation

Historic Weather in Chelyabinsk — Graph


Chelyabinsk temperature yesterday

Maximum temperature yesterday: 50 °F (at 12:00 AM)
Minimum temperature yesterday: 30 °F (at 5:30 AM)
Average temperature yesterday: 34 °F

Past Weeks' High & Low Weather Summary

High77 °F (Sep 28, 3:00 PM)100% (Oct 8, 12:00 AM)30.39 "Hg (Oct 8, 12:00 AM)
Low28 °F (Oct 10, 2:00 AM)9% (Sep 30, 4:00 PM)28.85 "Hg (Oct 3, 5:30 PM)
Average48 °F58%29.88 "Hg
* Reported Sep 25 8:00 AM — Oct 10 8:00 AM, Chelyabinsk, Weather by CustomWeather, © 2015

Note: Actual official high and low records may vary slightly from our data, if they occured in-between our weather recording intervals... More about our weather records


Chelyabinsk weather history for previous 24 hours

Time TempWeatherWind HumidityBarometerVisibility
8:00 AM
Sat, Oct 10
28 °FClear.13 mph64%29.89 "Hg10 mi
7:30 AM28 °FClear.15 mph64%29.89 "Hg10 mi
7:00 AM28 °FClear.13 mph59%29.89 "Hg10 mi
6:30 AM28 °FClear.15 mph59%29.89 "Hg10 mi
6:00 AM28 °FClear.13 mph59%29.89 "Hg10 mi
5:30 AM28 °FClear.13 mph59%29.89 "Hg10 mi
5:00 AM28 °FClear.13 mph64%29.89 "Hg10 mi
4:30 AM28 °FClear.13 mph64%29.89 "Hg10 mi
4:00 AM28 °FClear.13 mph64%29.89 "Hg10 mi
3:30 AM28 °FClear.13 mph64%29.89 "Hg10 mi
3:00 AM28 °FClear.10 mph59%29.89 "Hg10 mi
2:00 AM28 °FClear.10 mph59%29.86 "Hg10 mi
1:30 AM30 °FClear.13 mph51%29.86 "Hg10 mi
1:00 AM30 °FClear.10 mph51%29.89 "Hg10 mi
12:30 AM30 °FClear.15 mph51%29.86 "Hg10 mi
12:00 AM30 °FClear.15 mph51%29.86 "Hg10 mi
11:30 PM
Fri, Oct 9
30 °FClear.10 mph47%29.86 "Hg10 mi
11:00 PM30 °FClear.13 mph47%29.86 "Hg10 mi
10:30 PM30 °FClear.15 mph47%29.86 "Hg10 mi
10:00 PM30 °FClear.10 mph47%29.83 "Hg10 mi
9:30 PM30 °FClear.10 mph51%29.83 "Hg10 mi
9:00 PM30 °FClear.13 mph51%29.83 "Hg10 mi
8:30 PM30 °FPassing clouds.8 mph55%29.80 "HgN/A
8:00 PM30 °FPassing clouds.13 mph55%29.80 "HgN/A
7:30 PM30 °FScattered clouds.13 mph59%29.80 "HgN/A
7:00 PM30 °FSnow flurries. Scattered clouds.13 mph64%29.77 "Hg4 mi
6:30 PM30 °FSnow flurries. Partly sunny.20 mph69%29.77 "Hg4 mi
6:00 PM36 °FPartly sunny.15 mph35%29.74 "HgN/A
5:30 PM36 °FScattered clouds.15 mph30%29.74 "HgN/A
5:00 PM36 °FScattered clouds.17 mph27%29.71 "HgN/A
4:30 PM36 °FScattered clouds.15 mph30%29.71 "HgN/A
4:00 PM36 °FScattered clouds.20 mph30%29.68 "HgN/A
3:30 PM36 °FScattered clouds.22 mph27%29.68 "HgN/A
3:00 PM37 °FScattered clouds.22 mph30%29.65 "HgN/A
2:30 PM39 °FScattered clouds.22 mph28%29.65 "HgN/A
2:00 PM36 °FScattered clouds.20 mph32%29.62 "HgN/A
1:30 PM37 °FScattered clouds.17 mph35%29.62 "HgN/A
1:00 PM36 °FScattered clouds.20 mph38%29.62 "HgN/A
12:30 PM37 °FScattered clouds.22 mph30%29.59 "HgN/A
12:00 PM37 °FScattered clouds.22 mph33%29.56 "HgN/A
11:30 AM34 °FScattered clouds.20 mph38%29.56 "HgN/A
11:00 AM36 °FScattered clouds.22 mph32%29.56 "HgN/A
10:30 AM36 °FScattered clouds.20 mph35%29.53 "HgN/A
10:00 AM34 °FScattered clouds.24 mph41%29.53 "HgN/A
9:30 AM32 °FScattered clouds.24 mph44%29.50 "HgN/A
9:00 AM32 °FPassing clouds.20 mph44%29.50 "HgN/A
Weather by CustomWeather, © 2015

See weather overviewHow to use our weather pages